Regional Weather Roundup
Issued by NWS

Home | Current Version | Previous Version | Graphics & Text | Print | Product List | Glossary On
Versions: 1 2 3 4 5 6 7 8 9 10 11 12 13 14 15 16 17 18 19 20 21 22 23 24 25 26 27 28 29 30 31 32 33 34 35 36 37 38 39 40 41 42 43 44 45 46 47 48 49 50
000
ASUS43 KLMK 300410
RWRKY
KENTUCKY REGIONAL WEATHER ROUNDUP
NATIONAL WEATHER SERVICE LOUISVILLE KY
1200 AM EDT MON MAR 30 2015

NOTE "FAIR" INDICATES FEW OR NO CLOUDS BELOW 12,000 FEET
WITH NO SIGNIFICANT WEATHER AND/OR OBSTRUCTIONS TO VISIBILITY.

KYZ001>023-026-027-061>063-070>075-300500-
WESTERN AND SOUTH CENTRAL KENTUCKY

CITY           SKY/WX    TMP DP  RH WIND       PRES   REMARKS
PADUCAH        CLOUDY    55  47  74 W7        30.09R
HENDERSON      CLOUDY    54  43  66 W10       30.06S
OWENSBORO      CLOUDY    53  46  77 W7        30.06R
HOPKINSVILLE   DRIZZLE   57  45  62 W9        30.07R
BOWLING GREEN  CLOUDY    56  39  53 SW9       30.07R
GLASGOW        LGT RAIN  54  37  54 SW9       30.08R
$$

KYZ024-025-028>034-038-045-046-053-300500-
NORTH CENTRAL KENTUCKY

CITY           SKY/WX    TMP DP  RH WIND       PRES   REMARKS
LOUISVILLE/SDF LGT RAIN  53  41  63 W9        30.03R
LOUISVILLE/LOU LGT RAIN  53  40  61 W8        30.03R
FORT KNOX      LGT RAIN  51  41  70 SW7       30.03R
$$

KYZ035>037-039>044-047>052-055>060-089>105-300500-
NORTHEAST KENTUCKY

CITY           SKY/WX    TMP DP  RH WIND       PRES   REMARKS
LEXINGTON      CLOUDY    55  32  41 SW20G32   30.00S
COVINGTON      CLOUDY    45  38  76 SW7       29.98F
FRANKFORT      CLOUDY    54  35  48 SW17G29   29.99R
$$

KYZ054-064>069-076>088-106>120-300500-
SOUTHEAST KENTUCKY

CITY           SKY/WX    TMP DP  RH WIND       PRES   REMARKS
JACKSON        CLOUDY    52  20  28 VRB7      30.02S
LONDON         MOCLDY    54  22  28 SW12G20   30.07R
SOMERSET       CLOUDY    52  27  37 SW7       30.08S
MIDDLESBORO    PTCLDY    55  26  33 SW14G29   30.09R
MONTICELLO     PTCLDY    55  35  46 SW16      30.10F
$$



USA.gov is the U.S. government's official web portal to all federal, state and local government web resources and services.